Weather History for Wadena, MN

Change the Weather History Date:

Saturday, June 15, 2013

  Actual Average Record
Temperature  
Mean Temperature 65 °F -  
Max Temperature 73 °F 74 °F 96 °F (1979)
Min Temperature 57 °F 52 °F 39 °F (1968)
Growing Degree Days 15 (Base 50)    
Moisture  
Dew Point 51 °F    
Average Humidity 62    
Maximum Humidity 100    
Minimum Humidity 36    
Precipitation  
Precipitation 0.00 in - - ()
Sea Level Pressure  
Sea Level Pressure 29.89 in    
Wind  
Wind Speed 5 mph (West)    
Max Wind Speed 13 mph    
Max Gust Speed -    
Visibility 10 miles    
Events Rain    
Averages and records for this station are not official NWS values.
T = Trace of Precipitation, MM = Missing Value Source: NWS Daily Summary

Daily Weather History Graph

Daily Weather History Graph

Search for Another Location

Airport:

Trip Planner

Search our weather history database for the weather conditions in past years. The results will help you decide how hot, cold, wet, or windy it might be!

Date:

Astronomy

Jun. 15, 2013 Rise Set
Actual Time 5:27 AM CDT 9:15 PM CDT
Civil Twilight 4:48 AM CDT 9:54 PM CDT
Nautical Twilight 3:55 AM CDT 10:47 PM CDT
Astronomical Twilight 2:39 AM CDT 12:03 AM CDT
Moon 12:24 PM CDT (6/15) 12:31 AM CDT (6/15)
Length of Visible Light 17h 06m
Length of Day
15h 47m
Waxing Crescent, 40% of the Moon is Illuminated
Jun 15
Waxing Crescent
Jun 16
First Quarter
Jun 23
Full
Jun 29
Last Quarter
Jul 8
New

Hourly Weather History & Observations

Time (CDT) Temp. Dew Point Humidity Pressure Visibility Wind Dir Wind Speed Gust Speed Precip Events Conditions
12:15 AM 66.2 °F 57.2 °F 73% 29.84 in 10.0 mi SSE 8.1 mph - N/A   Scattered Clouds
12:34 AM 64.4 °F 57.2 °F 77% 29.84 in 10.0 mi SSE 5.8 mph - N/A   Clear
12:53 AM 64.4 °F 57.2 °F 77% 29.84 in 10.0 mi SSE 5.8 mph - N/A   Clear
1:15 AM 64.4 °F 57.2 °F 77% 29.85 in 10.0 mi SSE 4.6 mph - N/A   Clear
1:35 AM 64.4 °F 57.2 °F 77% 29.84 in 10.0 mi Calm Calm - N/A   Clear
1:53 AM 62.6 °F 57.2 °F 82% 29.85 in 10.0 mi SSE 4.6 mph - N/A   Clear
2:15 AM 62.6 °F 57.2 °F 82% 29.86 in 10.0 mi Calm Calm - N/A   Clear
2:35 AM 60.8 °F 57.2 °F 88% 29.86 in 10.0 mi SSE 4.6 mph - N/A   Clear
2:53 AM 62.6 °F 59.0 °F 88% 29.86 in 10.0 mi Calm Calm - N/A   Clear
3:14 AM 60.8 °F 57.2 °F 88% 29.87 in 10.0 mi Calm Calm - N/A   Clear
3:34 AM 60.8 °F 57.2 °F 88% 29.86 in 10.0 mi Calm Calm - N/A   Mostly Cloudy
3:53 AM 60.8 °F 59.0 °F 94% 29.87 in 10.0 mi WSW 3.5 mph - N/A   Overcast
4:15 AM 62.6 °F 60.8 °F 94% 29.87 in 10.0 mi Calm Calm - N/A   Overcast
4:35 AM 62.6 °F 59.0 °F 88% 29.86 in 10.0 mi Calm Calm - N/A   Mostly Cloudy
4:53 AM 60.8 °F 57.2 °F 88% 29.86 in 10.0 mi Calm Calm - N/A   Scattered Clouds
5:15 AM 59.0 °F 57.2 °F 94% 29.87 in 7.0 mi Calm Calm - N/A   Clear
5:35 AM 57.2 °F 57.2 °F 100% 29.87 in 1.5 mi Calm Calm - N/A   Mist
5:52 AM 57.2 °F 55.4 °F 94% 29.87 in 1.8 mi Calm Calm - N/A   Mist
6:14 AM 57.2 °F 57.2 °F 100% 29.88 in 3.0 mi Calm Calm - N/A   Clear
6:34 AM 57.2 °F 57.2 °F 100% 29.88 in 5.0 mi Calm Calm - N/A   Clear
6:53 AM 60.8 °F 59.0 °F 94% 29.89 in 7.0 mi WNW 4.6 mph - N/A   Clear
7:15 AM 62.6 °F 59.0 °F 88% 29.92 in 10.0 mi WNW 4.6 mph - N/A   Clear
7:35 AM 62.6 °F 57.2 °F 82% 29.94 in 10.0 mi WNW 6.9 mph - N/A   Clear
7:53 AM 62.6 °F 57.2 °F 82% 29.93 in 10.0 mi NW 4.6 mph - N/A   Clear
8:14 AM 64.4 °F 55.4 °F 73% 29.92 in 10.0 mi NNW 4.6 mph - N/A   Clear
8:35 AM 64.4 °F 51.8 °F 64% 29.92 in 10.0 mi North 5.8 mph - N/A   Clear
8:53 AM 64.4 °F 48.2 °F 56% 29.91 in 10.0 mi North 11.5 mph - N/A   Clear
9:14 AM 66.2 °F 48.2 °F 52% 29.92 in 10.0 mi NNW 12.7 mph - N/A   Clear
9:35 AM 66.2 °F 48.2 °F 52% 29.92 in 10.0 mi North 10.4 mph - N/A   Clear
9:53 AM 66.2 °F 46.4 °F 49% 29.93 in 10.0 mi NNW 8.1 mph - N/A   Clear
10:14 AM 66.2 °F 48.2 °F 52% 29.93 in 10.0 mi NNW 8.1 mph - N/A   Clear
10:35 AM 68.0 °F 48.2 °F 49% 29.93 in 10.0 mi NW 9.2 mph - N/A   Clear
10:53 AM 68.0 °F 48.2 °F 49% 29.94 in 10.0 mi NW 9.2 mph - N/A   Clear
11:14 AM 66.2 °F 48.2 °F 52% 29.94 in 10.0 mi NNW 9.2 mph - N/A   Clear
11:35 AM 66.2 °F 50.0 °F 56% 29.94 in 10.0 mi NNW 4.6 mph - N/A   Clear
11:53 AM 66.2 °F 48.2 °F 52% 29.93 in 10.0 mi NNW 4.6 mph - N/A   Clear
12:14 PM 66.2 °F 48.2 °F 52% 29.94 in 10.0 mi NNW 8.1 mph - N/A   Clear
12:35 PM 66.2 °F 50.0 °F 56% 29.92 in 10.0 mi North 4.6 mph - N/A   Clear
12:53 PM 64.4 °F 48.2 °F 56% 29.92 in 10.0 mi NNW 5.8 mph - N/A   Scattered Clouds
1:14 PM 66.2 °F 50.0 °F 56% 29.92 in 10.0 mi NNW 3.5 mph - N/A   Overcast
1:35 PM 64.4 °F 48.2 °F 56% 29.92 in 10.0 mi Calm Calm - N/A   Overcast
1:52 PM 66.2 °F 50.0 °F 56% 29.92 in 10.0 mi Calm Calm - N/A   Mostly Cloudy
2:15 PM 66.2 °F 48.2 °F 52% 29.92 in 10.0 mi Calm Calm - N/A Rain Light Rain
2:35 PM 66.2 °F 48.2 °F 52% 29.92 in 10.0 mi Calm Calm - N/A Rain Light Rain
2:53 PM 66.2 °F 48.2 °F 52% 29.93 in 10.0 mi West 4.6 mph - N/A   Scattered Clouds
3:15 PM 66.2 °F 48.2 °F 52% 29.91 in 10.0 mi Calm Calm - N/A   Clear
3:35 PM 71.6 °F 46.4 °F 41% 29.90 in 10.0 mi SSW 4.6 mph - N/A   Clear
3:53 PM 71.6 °F 46.4 °F 41% 29.90 in 10.0 mi SSW 5.8 mph - N/A   Clear
4:14 PM 71.6 °F 46.4 °F 41% 29.89 in 10.0 mi West 6.9 mph - N/A   Clear
4:35 PM 73.4 °F 44.6 °F 36% 29.89 in 10.0 mi West 4.6 mph - N/A   Clear
4:53 PM 73.4 °F 44.6 °F 36% 29.88 in 10.0 mi SW 3.5 mph - N/A   Clear
5:14 PM 73.4 °F 44.6 °F 36% 29.88 in 10.0 mi West 8.1 mph - N/A   Clear
5:35 PM 73.4 °F 44.6 °F 36% 29.88 in 10.0 mi West 9.2 mph - N/A   Clear
5:53 PM 73.4 °F 44.6 °F 36% 29.87 in 10.0 mi SW 6.9 mph - N/A   Clear
6:15 PM 73.4 °F 44.6 °F 36% 29.86 in 10.0 mi WSW 4.6 mph - N/A   Clear
6:35 PM 73.4 °F 44.6 °F 36% 29.85 in 10.0 mi SW 9.2 mph - N/A   Clear
6:53 PM 73.4 °F 44.6 °F 36% 29.85 in 10.0 mi WSW 10.4 mph - N/A   Clear
7:15 PM 73.4 °F 46.4 °F 38% 29.84 in 10.0 mi SSW 9.2 mph - N/A   Clear
7:35 PM 73.4 °F 44.6 °F 36% 29.84 in 10.0 mi SSW 6.9 mph - N/A   Clear
7:53 PM 71.6 °F 44.6 °F 38% 29.84 in 10.0 mi SSW 6.9 mph - N/A   Clear
8:15 PM 71.6 °F 46.4 °F 41% 29.84 in 10.0 mi SSW 5.8 mph - N/A   Clear
8:35 PM 68.0 °F 48.2 °F 49% 29.84 in 10.0 mi SSW 4.6 mph - N/A   Clear
8:52 PM 66.2 °F 46.4 °F 49% 29.84 in 10.0 mi SSW 5.8 mph - N/A   Clear
9:14 PM 64.4 °F 46.4 °F 52% 29.84 in 10.0 mi SSW 5.8 mph - N/A   Clear
9:35 PM 64.4 °F 46.4 °F 52% 29.85 in 10.0 mi SW 3.5 mph - N/A   Clear
9:53 PM 62.6 °F 46.4 °F 55% 29.86 in 10.0 mi WSW 4.6 mph - N/A   Clear
10:15 PM 60.8 °F 46.4 °F 59% 29.87 in 10.0 mi West 5.8 mph - N/A   Clear
10:35 PM 62.6 °F 46.4 °F 55% 29.87 in 10.0 mi WSW 4.6 mph - N/A   Clear
10:53 PM 60.8 °F 46.4 °F 59% 29.87 in 10.0 mi West 4.6 mph - N/A   Clear
11:15 PM 59.0 °F 44.6 °F 59% 29.88 in 10.0 mi WSW 4.6 mph - N/A   Clear
11:34 PM 57.2 °F 44.6 °F 63% 29.88 in 10.0 mi WSW 3.5 mph - N/A   Clear
11:53 PM 59.0 °F 44.6 °F 59% 29.88 in 10.0 mi West 4.6 mph - N/A   Clear